RH
54 61 67 69 71 73 72 71 70 69 69 69 68 68 65 63 61 58 55 53 52 50 48 46 44 42 41 39 37 35 33 32 31 29 27 25 23 22 20 19 18 17 17 16 16 16 16 16 16 16 17 17 17 18 18 19 19 20 21 21 22 22 22 22 22 22 22 22 22 23 23 22 22 23 23 23 23 22 22 22 21 21 21 21 21 20 20 20
28 31 35 39 44 47 49 51 52 53 54 56 57 58 58 58 58 57 57 56 55 54 52 51 50 48 46 44 42 39 37 34 31 30 27 25 22 21 19 18 18 17 17 16 16 16 16 16 16 16 16 16 16 16 17 17 18 18 19 19 19 19 19 19 20 20 21 21 21 22 22 22 21 21 21 21 21 21 21 20 20 20 19 19 19 18 18 18
26 26 25 25 25 26 26 26 27 28 30 32 34 36 38 41 45 49 54 57 58 58 58 58 56 53 51 48 45 41 37 33 30 27 25 22 21 20 19 19 19 19 18 17 17 16 16 16 16 16 16 16 16 16 17 17 17 18 18 18 18 17 17 18 18 18 19 19 20 20 19 20 19 19 19 19 19 19 19 18 18 18 17 17 17 16 16 16
28 28 28 27 26 24 23 22 21 21 23 23 23 24 26 28 33 39 46 53 57 59 60 59 57 53 50 47 43 39 34 31 28 25 24 23 23 23 22 21 21 20 19 19 18 18 18 17 16 16 16 17 17 17 17 17 17 18 18 18 17 17 17 17 18 18 18 18 18 18 18 18 17 17 17 17 17 17 17 16 16 16 15 15 15 15 14 14
27 27 26 26 25 24 22 21 21 21 21 21 21 22 23 26 30 34 40 47 52 55 55 54 51 48 46 43 40 36 33 32 30 29 29 28 27 26 24 23 23 22 21 20 19 19 19 18 18 18 17 17 17 17 17 17 17 18 18 17 17 17 17 17 17 17 17 17 17 17 17 16 16 16 16 16 16 15 15 15 15 14 14 14 14 13 13 13
37 36 36 35 35 34 33 31 30 30 31 31 32 32 33 36 39 42 46 50 52 53 52 50 49 48 46 44 42 39 37 35 33 30 29 27 25 24 23 22 21 21 20 19 19 18 18 18 18 18 18 18 17 17 17 17 17 17 17 16 16 16 16 16 16 16 16 17 17 16 16 16 16 16 16 15 15 15 14 14 14 14 14 13 13 13 12 12
68 66 64 63 62 60 59 58 59 59 59 59 59 58 58 57 58 58 58 58 58 56 55 54 53 51 48 45 41 37 33 30 27 25 23 22 21 20 19 18 18 17 17 16 16 16 16 16 16 16 16 17 17 17 17 17 16 16 16 16 16 16 16 15 16 16 16 16 16 16 16 16 16 16 15 15 15 15 15 14 14 14 13 13 13 13 13 12
91 90 86 84 84 83 82 81 79 77 75 74 72 70 67 65 64 63 62 61 60 58 55 51 47 42 38 34 31 27 25 23 22 21 20 19 18 17 17 16 16 15 15 15 15 15 14 14 14 14 14 14 15 15 15 15 16 16 16 15 15 15 15 15 15 15 15 15 15 15 15 15 15 15 15 15 15 15 15 15 14 14 14 14 13 13 13 12
96 95 94 93 92 90 87 82 79 76 74 72 71 69 67 66 64 62 58 55 50 45 40 35 31 28 26 25 24 23 23 23 22 22 21 21 20 20 19 19 18 18 17 17 17 16 16 16 15 15 15 15 14 14 14 14 14 14 14 15 15 15 15 15 15 15 15 15 15 15 14 15 14 15 15 15 15 15 15 15 15 15 14 14 14 13 13 13
99 99 97 93 88 85 81 79 78 76 74 73 70 67 63 59 53 47 41 37 32 29 28 27 27 27 27 28 28 28 28 27 27 27 27 27 26 26 25 25 24 22 22 21 21 20 20 19 19 18 18 17 17 17 16 15 15 15 15 15 14 14 14 14 14 14 14 14 15 15 14 15 14 14 15 14 15 15 15 15 14 14 14 14 14 13 13 13
102 103 97 89 83 82 81 80 78 74 70 64 58 51 44 38 34 30 28 28 28 29 31 32 33 34 34 35 35 35 34 34 34 35 36 35 35 34 32 31 30 28 27 26 25 25 24 23 23 22 21 20 20 19 19 18 17 17 17 16 16 15 15 15 15 15 15 15 15 15 15 15 15 15 14 14 14 14 14 14 14 14 14 13 13 13 13 12
104 104 97 86 82 80 77 72 66 58 50 42 36 32 29 29 28 29 31 32 34 36 39 41 42 42 42 42 41 41 41 43 45 47 47 47 46 44 42 39 37 36 34 33 31 30 29 27 26 25 24 23 22 22 21 21 20 20 19 18 17 16 16 16 16 16 15 15 15 15 15 15 15 15 14 14 14 14 14 14 14 13 13 13 12 12 12 12
98 95 86 76 69 64 57 50 42 36 32 30 30 30 31 33 35 37 39 40 43 45 47 50 51 51 50 49 48 49 52 56 59 61 61 60 58 56 54 51 48 46 44 41 39 36 34 32 31 29 28 27 26 27 26 24 24 23 22 20 19 18 17 17 17 17 17 16 16 16 16 16 16 15 14 14 13 13 13 13 13 12 12 12 12 12 12 12
76 69 61 54 47 42 37 33 31 31 32 34 37 39 41 42 43 44 45 47 50 51 53 58 60 60 59 58 59 62 65 68 70 71 72 72 71 69 67 64 62 59 56 52 48 45 42 39 37 35 34 34 34 34 33 32 32 31 28 24 22 21 19 20 20 20 20 20 20 20 20 19 18 17 16 15 15 15 14 14 13 13 13 13 12 12 12 12
49 45 41 38 36 35 34 35 36 38 40 44 47 50 50 48 48 48 49 54 56 54 57 63 66 67 69 69 70 72 73 75 76 78 79 78 78 78 77 75 72 70 68 65 62 57 54 50 47 45 44 45 44 43 43 43 41 39 35 30 29 27 26 29 31 31 30 30 29 27 26 24 23 22 21 21 21 20 18 17 17 16 16 15 15 15 14 14
39 38 38 39 41 43 44 46 47 48 50 53 56 56 54 52 52 52 53 57 57 54 57 67 71 73 76 77 77 77 78 80 82 83 83 81 80 80 80 80 78 76 74 73 71 68 65 62 59 56 54 54 51 50 49 48 45 43 41 40 40 41 42 44 46 45 42 40 37 35 34 31 29 29 29 30 29 27 25 24 23 22 21 20 19 18 18 17
45 48 50 53 54 55 56 57 57 58 59 60 60 60 59 57 56 55 55 57 57 55 58 67 72 74 78 81 80 79 81 82 82 80 78 77 77 78 78 79 79 78 75 74 72 70 69 68 67 65 62 60 56 54 52 50 50 50 52 54 56 56 56 56 55 54 49 45 42 41 41 37 33 33 36 39 37 34 32 31 30 29 26 25 24 23 23 22
61 65 66 67 67 67 67 67 66 65 65 65 65 66 66 65 62 60 59 58 58 56 58 65 71 73 76 79 80 80 78 77 76 74 72 72 72 73 74 75 77 78 77 76 74 72 71 71 72 71 68 66 64 61 58 57 58 59 61 65 67 66 64 62 59 57 53 49 47 45 46 43 38 38 42 48 47 40 39 38 36 35 33 31 30 29 28 28
77 78 77 77 77 78 77 75 74 73 73 73 74 74 74 73 69 67 64 63 63 63 64 68 72 75 77 79 80 79 76 72 71 71 70 68 68 68 69 69 71 73 75 76 78 79 77 77 76 73 70 71 73 72 70 70 69 67 66 67 68 68 66 65 62 58 55 53 51 50 53 52 47 46 49 59 63 55 50 48 44 41 39 37 36 35 34 33
79 78 80 83 84 86 86 85 83 82 83 84 83 81 81 81 78 76 74 72 72 72 73 73 74 78 80 80 79 79 77 73 71 69 67 65 64 63 62 63 63 64 66 69 72 75 75 74 73 70 71 75 80 79 78 79 77 75 72 70 69 67 65 63 60 57 55 57 58 60 63 64 64 61 60 71 79 74 66 60 55 50 46 43 42 41 39 37
72 71 74 80 85 90 92 92 91 90 91 91 89 85 84 85 86 84 82 80 80 80 79 78 78 79 79 78 77 78 78 76 72 67 63 61 59 57 56 56 56 57 58 60 62 65 66 65 62 63 68 74 78 77 76 74 73 73 73 73 72 69 66 62 59 57 59 63 65 69 72 74 79 77 75 84 90 88 82 75 69 64 59 57 55 51 46 44
65 64 63 68 74 82 89 93 95 95 95 95 94 91 89 90 91 89 85 82 81 80 79 79 78 79 78 78 77 76 76 74 71 67 62 58 55 53 52 52 52 52 54 56 59 62 63 61 59 60 64 68 71 71 71 69 68 68 68 70 71 68 65 61 59 61 67 71 72 75 77 75 80 83 85 94 95 93 93 91 91 84 74 75 74 66 62 61
63 60 57 58 60 65 72 79 86 90 92 94 94 92 90 89 88 86 82 80 79 79 78 77 76 77 77 76 75 74 74 72 70 67 63 58 54 53 53 55 56 58 61 64 68 69 65 61 60 60 60 60 63 65 66 66 66 66 66 68 68 64 62 59 60 65 71 77 77 78 77 72 72 77 84 93 96 94 94 99 105 97 84 86 91 86 84 84
72 70 65 60 56 57 59 62 66 70 74 76 77 76 74 71 69 68 66 65 66 66 68 70 71 73 75 75 74 73 72 71 70 67 63 59 57 58 59 63 65 67 73 76 79 77 69 66 66 64 64 63 63 64 65 64 63 64 65 68 68 64 61 60 60 65 71 78 79 79 80 76 70 69 74 84 94 98 97 99 103 96 86 92 102 102 99 100
91 95 95 82 69 61 57 57 57 57 58 59 60 61 60 60 59 59 58 57 57 56 56 56 57 60 64 68 71 73 73 72 71 68 65 63 62 63 66 69 69 72 79 84 86 81 73 73 74 71 74 75 73 72 72 72 70 68 68 69 69 68 66 65 62 63 68 72 77 83 85 86 82 75 73 77 84 92 94 93 94 92 88 96 107 108 105 103
103 107 112 105 93 80 66 60 57 56 56 56 59 60 61 62 61 61 60 59 58 57 56 54 52 51 52 54 58 63 68 71 74 74 73 70 68 67 69 72 76 79 84 88 88 84 77 78 80 77 78 82 82 79 78 80 81 79 77 73 71 71 71 70 67 65 65 64 69 78 84 93 98 91 85 84 81 80 80 81 84 88 91 96 103 107 107 105
106 107 108 106 104 96 80 67 60 58 58 58 61 62 63 64 65 65 64 64 63 61 60 57 54 52 49 48 48 49 53 59 68 75 79 81 78 76 73 74 78 81 86 88 87 85 81 81 84 85 87 89 88 84 82 85 87 86 84 81 78 78 77 78 76 73 71 67 68 73 79 92 105 102 90 88 86 78 73 75 79 86 91 92 95 101 103 102
104 106 105 104 103 98 88 77 67 61 60 62 63 65 67 69 70 70 70 70 69 67 64 61 57 55 51 49 47 45 46 47 52 60 68 75 79 81 79 76 76 76 81 84 83 83 82 80 82 87 91 90 86 85 85 86 88 88 87 86 86 86 86 85 83 81 79 75 73 73 73 78 94 103 89 79 83 81 81 86 87 89 90 90 92 95 97 96
108 108 105 101 100 97 91 86 78 70 66 66 66 68 71 73 76 78 78 77 75 71 68 64 60 58 55 53 50 48 46 44 44 45 49 55 62 70 75 78 79 77 78 80 81 83 84 81 80 83 87 86 83 82 83 83 83 85 86 86 85 84 85 83 81 81 80 83 87 83 75 69 80 100 99 87 85 87 92 98 97 95 92 91 91 92 97 97
110 113 111 105 103 101 97 93 87 82 79 78 78 79 80 83 86 88 87 84 80 75 71 68 65 62 60 58 56 53 49 46 44 43 42 43 47 52 59 66 74 79 81 82 82 84 86 85 83 82 84 84 83 82 81 80 78 77 78 78 75 73 74 74 75 77 77 84 92 86 77 73 80 100 105 96 93 95 94 92 90 91 90 91 91 91 98 102
107 109 110 108 107 105 102 100 94 90 90 89 89 90 91 93 94 94 91 88 86 82 76 73 71 68 65 62 59 56 52 49 46 44 43 41 41 42 44 49 56 67 75 79 81 82 84 86 84 82 81 81 81 81 81 82 80 78 75 74 72 70 68 68 68 70 69 72 77 73 69 71 80 96 102 98 99 102 99 92 88 86 87 90 91 92 97 103
107 105 105 105 105 104 102 100 97 94 94 92 92 91 92 94 94 94 93 90 90 87 81 78 75 73 70 65 61 57 53 50 47 45 44 42 42 41 41 42 45 51 58 65 73 77 79 81 82 83 82 81 81 79 79 81 81 81 80 79 78 76 73 72 69 66 66 66 66 66 64 65 71 82 92 99 104 106 105 101 96 92 93 94 91 89 91 99
106 106 106 104 104 104 100 97 95 93 91 90 90 89 91 94 94 93 93 91 91 88 84 81 77 74 70 66 63 59 55 53 50 48 47 45 45 44 43 43 44 46 49 53 60 67 72 75 77 80 81 81 81 79 76 75 76 76 77 77 76 75 75 74 71 67 67 66 65 65 64 64 68 70 75 83 93 102 107 107 103 99 98 96 92 91 91 97
93 98 102 103 103 103 100 98 97 94 92 91 91 91 92 95 94 92 92 90 88 85 81 77 73 69 67 66 65 63 60 58 56 53 52 50 50 51 52 52 52 52 53 54 56 61 67 69 70 75 76 77 77 76 72 70 70 70 70 69 69 70 70 70 71 70 68 66 65 64 63 64 67 66 65 68 73 83 91 97 101 100 97 96 96 97 99 103
69 74 80 85 90 92 93 94 94 94 94 92 92 93 93 94 94 93 91 86 82 78 75 71 70 69 69 71 72 71 69 67 64 62 59 57 57 58 60 63 63 61 60 62 63 66 70 71 69 71 75 75 72 71 70 69 67 65 64 65 65 65 64 65 66 66 65 64 62 62 62 63 63 62 61 62 62 65 70 75 82 87 91 95 97 100 102 103
59 61 63 65 69 72 75 78 80 82 83 83 84 86 87 88 89 88 86 82 79 75 72 71 71 75 78 81 82 81 80 78 75 73 71 70 69 69 69 70 71 71 69 70 71 74 78 78 73 72 75 76 73 70 68 67 65 63 62 61 60 59 59 60 60 59 59 58 56 57 58 57 58 58 58 58 58 58 59 61 65 71 78 85 90 93 96 97
49 53 56 58 60 61 63 66 68 70 69 69 71 73 76 80 82 84 82 79 78 75 72 72 73 80 87 91 91 89 86 85 86 86 85 83 82 80 80 79 80 80 78 77 76 77 80 81 78 75 74 75 74 71 68 65 64 62 60 58 56 55 54 54 54 53 53 52 51 51 51 51 51 51 52 52 52 53 54 56 58 61 66 71 76 79 82 86
42 43 45 48 51 55 59 61 63 64 63 63 65 65 67 71 75 79 80 79 78 76 74 72 72 79 88 94 97 96 91 88 90 91 91 90 88 87 87 86 85 84 83 81 79 78 79 79 76 74 70 68 67 66 65 63 61 60 58 56 55 53 51 51 50 49 49 49 48 47 47 47 47 46 46 46 47 48 49 52 53 54 57 59 63 66 68 72
52 49 46 43 43 44 48 53 57 59 60 62 64 63 63 68 71 75 79 79 77 75 74 73 72 76 84 89 93 97 96 92 90 90 89 88 89 89 88 87 85 83 82 80 77 75 72 70 68 66 65 62 60 58 57 57 57 59 59 58 56 55 53 52 51 50 49 48 48 48 47 46 46 45 45 45 45 47 48 49 51 51 52 53 55 57 59 61
58 62 60 55 52 49 46 46 48 52 55 58 61 61 62 66 71 74 77 80 78 76 75 75 74 76 81 85 87 90 92 92 90 90 89 87 86 87 88 88 86 83 79 76 72 68 65 62 61 62 63 63 62 60 58 57 56 56 57 57 56 55 53 51 50 49 47 46 45 46 45 45 44 43 43 43 43 45 45 46 47 47 48 49 49 51 52 54
54 62 67 66 66 65 61 58 53 50 51 53 55 57 59 62 69 73 76 79 80 78 77 77 78 77 78 81 84 85 85 85 84 84 86 88 88 88 88 87 85 80 76 72 69 66 64 62 62 65 69 70 68 67 64 62 58 55 52 51 49 48 47 45 43 42 41 40 39 39 38 38 39 39 39 38 38 38 39 39 40 40 40 41 42 42 44 45
60 60 63 66 69 72 73 74 72 67 63 61 57 56 55 56 61 66 69 74 76 77 78 79 79 78 76 75 77 79 81 82 81 77 77 82 87 87 86 84 81 77 74 71 68 68 69 69 70 72 74 74 71 69 66 62 58 53 49 46 43 41 39 36 35 35 35 34 34 33 33 34 36 38 38 37 37 36 35 34 35 34 35 35 35 35 35 36
75 73 68 65 65 69 75 81 85 85 81 77 71 66 63 60 60 61 64 68 71 71 74 76 76 77 76 75 75 77 80 82 84 82 77 76 79 81 80 77 75 74 76 77 77 78 77 75 75 74 72 71 67 64 60 56 53 49 45 42 39 36 35 33 31 30 30 31 32 32 31 32 36 38 38 39 39 38 37 35 34 34 35 35 35 34 34 33
65 76 81 79 72 68 70 75 83 87 87 86 83 79 76 72 70 69 68 68 67 66 69 72 73 76 78 78 78 80 82 82 82 85 84 79 76 76 75 73 73 75 80 84 86 85 81 76 72 69 64 61 57 54 51 47 45 43 41 39 37 36 34 32 31 30 29 30 33 34 33 33 35 36 38 39 40 42 42 40 38 37 37 37 38 38 37 36
41 50 64 76 81 80 80 80 81 81 80 81 80 79 79 77 76 75 71 69 68 68 71 74 77 80 82 83 83 83 85 85 80 79 83 82 76 73 73 74 77 82 85 87 86 81 75 69 63 58 53 50 46 44 42 40 39 38 37 37 37 36 35 35 33 32 31 32 34 35 36 37 37 36 38 39 40 42 43 43 43 42 41 40 41 41 41 39
47 41 40 46 55 67 79 89 93 92 88 84 80 78 79 77 75 73 71 70 70 73 77 81 87 91 93 93 92 89 88 89 85 79 80 82 79 75 76 80 86 91 90 86 80 72 64 58 52 48 45 42 39 37 36 36 35 34 34 36 37 38 39 40 39 39 39 37 34 36 39 39 38 37 37 37 37 38 39 41 43 44 46 46 47 47 46 43
62 59 53 45 40 40 48 61 76 88 95 98 96 95 94 89 83 79 76 73 72 73 76 81 87 93 97 99 100 96 92 92 91 87 84 84 85 85 88 92 93 91 85 75 66 59 53 48 43 41 38 35 34 33 33 33 34 35 35 36 39 42 44 47 49 51 51 45 41 44 45 41 39 39 38 38 37 36 36 38 40 43 46 49 52 54 54 53
58 62 64 62 57 50 44 40 42 50 61 73 83 92 99 100 96 93 92 91 89 86 83 82 83 86 91 95 99 98 97 95 95 96 95 93 93 96 99 98 90 80 70 60 53 48 43 40 37 35 33 32 32 32 34 36 38 39 41 43 45 47 49 53 58 61 60 56 53 54 51 45 45 45 43 41 39 39 40 40 40 43 44 46 48 51 54 56
53 53 55 58 61 64 62 57 51 44 40 41 45 53 64 73 77 79 84 91 98 102 102 100 98 96 96 98 101 103 104 104 105 105 106 106 103 98 91 82 72 61 52 47 43 40 37 35 33 33 32 33 34 35 37 38 39 41 46 51 55 58 60 61 60 58 57 56 56 57 55 53 57 56 51 46 42 43 45 46 46 45 46 46 47 49 51 53
59 56 53 51 52 55 58 62 65 64 60 53 46 41 39 40 43 46 51 57 65 76 86 92 95 99 99 98 100 102 103 106 107 105 102 97 89 79 68 59 52 47 43 41 39 36 35 34 34 34 34 35 37 39 40 41 44 47 52 58 67 74 75 70 64 59 55 54 55 55 53 56 61 61 55 50 48 48 48 49 49 49 49 49 48 49 50 51
66 65 62 59 56 53 51 52 54 59 64 67 67 65 60 53 47 42 39 38 38 40 46 51 56 62 68 71 73 74 74 75 76 73 69 64 58 52 47 43 41 39 38 37 36 35 35 35 35 36 36 38 44 48 51 53 52 52 60 72 77 76 73 70 69 68 67 64 59 54 51 53 55 53 50 49 49 48 48 47 46 47 48 49 48 48 48 48
74 71 69 67 65 63 60 56 53 51 53 56 60 65 70 71 70 65 58 53 49 45 41 39 38 37 39 40 41 42 42 42 41 41 41 40 40 39 38 38 38 38 38 37 36 36 36 37 39 42 45 51 59 65 67 64 58 60 73 82 77 69 68 69 72 74 75 72 65 60 58 58 55 52 50 49 49 49 49 49 49 48 47 47 47 48 49 49
Wind_Speed
78 79 79 80 80 80 81 80 80 80 80 79 79 79 79 78 78 76 75 74 73 73 73 73 73 73 73 73 74 74 75 76 76 76 77 78 78 79 80 81 82 83 83 84 85 87 88 89 90 91 92 93 94 95 95 95 96 96 97 97 99 101 103 104 104 103 102 101 100 101 101 101 99 97 96 95 96 98 100 100 100 100 100 99 100 101 101 101
76 76 77 78 78 79 79 79 79 79 79 78 78 78 78 78 77 76 75 75 74 73 73 73 73 73 73 74 74 75 76 76 77 76 77 77 77 78 78 79 79 80 81 82 83 84 84 86 87 88 89 90 91 91 91 92 92 93 93 94 96 98 100 100 98 97 97 97 97 97 97 97 96 95 94 93 93 95 97 98 99 98 98 98 99 99 99 99
73 74 74 74 75 75 75 75 75 75 75 75 75 75 75 75 75 75 74 74 74 73 73 73 73 73 74 74 74 75 76 76 76 75 76 75 75 76 76 76 76 77 78 79 80 80 81 83 84 85 86 86 87 88 88 89 89 89 90 91 93 95 95 94 93 92 92 92 92 93 93 93 93 92 91 91 91 92 93 95 96 96 95 95 95 95 95 96
70 70 70 71 71 71 72 71 71 71 71 71 71 71 71 71 72 72 72 72 72 72 72 72 72 72 73 73 74 75 75 74 74 74 73 73 73 73 74 74 74 75 75 76 77 78 79 80 81 82 82 82 83 84 85 85 86 87 88 90 91 91 91 90 89 89 89 89 89 90 90 90 90 89 88 88 88 89 90 92 92 92 91 91 91 92 93 94
66 66 66 67 67 67 67 67 67 67 67 67 67 67 67 67 67 67 68 68 68 69 69 70 70 70 71 72 72 72 72 71 71 71 71 71 72 72 72 72 73 74 74 75 75 76 77 77 78 79 79 80 81 82 82 83 84 85 87 89 89 89 88 88 88 87 87 87 88 88 88 88 88 87 87 87 87 88 88 88 88 88 88 88 90 91 92 92
60 60 60 61 61 61 61 60 60 60 60 60 60 61 61 61 62 62 63 63 64 65 65 66 67 67 68 69 69 69 69 70 70 70 71 71 71 71 72 72 73 73 74 74 75 75 75 76 76 77 78 79 80 81 82 83 84 85 87 87 87 87 87 86 86 86 86 86 86 86 86 86 86 86 86 86 86 87 86 86 87 87 87 88 89 90 90 91
54 54 54 54 55 54 54 54 53 53 53 53 54 54 55 56 56 57 58 59 60 61 62 63 64 66 67 67 67 68 68 69 69 70 70 71 71 71 71 72 72 72 73 73 73 74 74 75 76 77 78 79 80 81 81 82 84 85 86 86 85 85 85 85 85 85 85 85 85 85 85 85 85 85 85 86 86 86 86 86 87 87 88 88 89 89 89 90
51 51 51 51 51 51 51 50 50 50 50 50 51 52 52 53 54 56 57 58 59 60 61 62 64 65 65 66 66 66 67 67 67 67 68 67 67 67 67 67 68 68 68 68 69 69 70 71 73 75 76 77 78 78 80 82 83 84 84 84 84 85 84 84 85 85 85 85 85 85 85 85 85 85 86 86 86 86 86 87 87 88 88 89 89 89 89 89
49 49 49 50 50 50 49 49 49 49 50 50 51 52 53 53 55 56 57 58 59 59 60 61 62 62 62 62 62 62 62 62 62 61 61 61 60 60 59 59 60 60 60 61 61 62 63 64 66 67 68 70 71 73 75 78 80 81 82 82 83 84 84 84 84 84 84 85 85 85 85 85 86 86 87 87 87 87 87 87 88 89 89 89 89 89 89 89
48 48 48 49 49 49 49 49 50 50 51 51 52 53 54 54 55 56 56 57 57 57 56 57 57 57 57 56 56 56 56 55 55 54 54 53 53 52 51 51 52 52 52 52 53 54 55 56 57 58 59 61 63 65 68 70 72 74 75 77 79 80 80 80 81 81 82 83 83 83 84 84 85 85 85 86 86 86 87 87 87 87 87 87 87 87 88 88
47 48 48 48 49 49 50 50 51 51 52 52 53 53 54 54 54 54 53 53 52 52 51 51 52 51 51 51 50 50 50 49 48 47 47 46 46 45 45 45 45 45 45 46 46 47 48 49 50 51 52 54 55 57 59 62 63 65 67 70 72 73 73 74 74 75 76 77 78 79 79 80 80 81 82 82 82 83 83 83 83 83 84 84 85 86 86 86
47 48 48 49 50 50 51 51 52 52 52 52 52 52 52 51 50 50 49 48 48 47 46 47 47 47 46 46 45 45 44 42 42 41 41 41 41 40 40 40 40 39 39 40 41 43 43 44 45 46 47 48 49 50 52 54 55 57 60 62 63 64 64 65 65 66 67 69 70 71 71 72 73 74 75 75 76 77 77 78 79 80 81 82 82 83 84 84
48 49 49 50 51 51 51 51 51 50 50 49 49 49 48 47 46 46 45 44 43 42 42 43 43 42 42 41 40 39 39 38 37 37 37 37 37 37 37 37 36 36 36 37 38 39 40 41 42 42 43 43 44 46 47 48 49 51 53 55 55 56 55 56 56 57 58 59 61 62 63 64 65 66 68 69 70 71 72 73 75 76 77 78 78 79 80 81
49 49 50 50 50 50 50 49 48 47 46 46 45 45 44 44 43 42 41 41 40 39 40 40 40 39 38 37 37 36 36 36 36 36 36 36 36 36 35 35 35 35 35 36 36 37 37 38 39 39 40 41 42 43 44 44 44 46 48 48 48 49 49 49 49 50 51 51 52 54 55 57 58 59 60 61 63 64 66 68 69 70 72 73 74 75 76 78
49 49 48 48 47 47 46 45 45 44 43 42 42 42 42 41 40 40 39 39 39 38 39 39 38 37 37 37 36 36 36 36 37 37 37 36 36 36 36 35 35 35 35 35 36 36 36 36 36 37 38 39 40 40 40 40 41 42 43 44 44 44 44 43 43 44 44 45 46 47 49 51 51 52 53 54 56 59 61 62 64 65 67 69 70 71 73 75
46 46 45 44 44 43 43 42 41 41 40 40 40 40 40 39 39 38 39 39 39 39 39 38 38 37 37 38 38 37 37 37 38 38 37 37 37 37 37 37 37 36 36 36 36 36 36 36 36 37 37 38 39 39 39 39 39 40 41 41 41 41 40 39 39 40 40 41 42 43 44 46 46 46 47 49 51 54 55 57 59 61 63 65 66 67 69 71
43 42 42 41 41 40 40 39 39 39 39 39 38 38 38 39 39 39 39 40 40 39 39 39 39 38 38 40 39 38 38 38 39 39 38 38 38 38 38 38 38 38 38 38 38 37 37 37 38 38 38 38 38 38 38 38 39 40 40 40 40 39 38 38 38 38 39 39 39 39 41 43 43 42 42 44 47 49 50 52 54 56 58 59 61 62 64 65
39 39 38 38 38 38 37 37 37 37 37 37 37 37 38 38 39 39 39 40 40 40 40 40 40 39 39 40 40 40 40 39 40 40 40 39 39 39 40 39 39 39 39 39 39 40 40 40 40 40 39 38 38 38 38 38 39 39 39 39 40 39 39 39 39 39 39 38 38 38 38 40 40 38 38 40 43 45 45 47 49 50 51 52 54 55 57 58
37 36 36 36 36 36 35 35 35 35 35 36 36 37 37 38 39 39 39 39 40 40 40 40 40 39 40 40 41 41 41 40 40 40 40 40 40 40 41 41 41 41 41 41 41 42 43 42 42 42 40 39 40 40 40 40 40 40 40 40 41 41 40 40 40 39 38 38 38 37 37 37 36 35 34 35 38 40 41 42 44 45 45 46 47 48 49 50
35 35 34 34 34 34 34 34 34 34 34 35 36 36 37 38 38 38 38 39 39 39 40 40 39 39 40 40 40 41 41 41 41 41 41 41 41 41 42 42 42 42 42 42 43 44 45 45 44 42 40 40 42 43 42 42 42 42 42 42 42 43 42 41 40 39 38 38 38 37 36 36 35 33 31 32 34 36 37 38 39 40 41 41 42 42 43 44
34 34 34 34 33 33 33 33 34 34 34 35 35 36 36 37 37 37 37 38 38 39 39 39 39 39 40 40 40 40 41 41 42 42 41 41 41 41 41 42 42 42 42 43 44 45 46 46 44 41 41 42 44 44 44 44 44 44 44 44 45 45 44 42 41 39 39 38 38 37 37 36 35 34 32 32 34 34 35 35 35 36 36 37 38 38 39 40
34 34 34 34 33 33 33 34 34 34 34 35 35 35 35 35 36 36 36 36 37 38 38 38 38 39 40 40 40 40 41 41 41 41 41 40 40 40 40 40 41 41 41 42 42 44 46 45 43 42 43 43 44 45 45 45 45 45 45 46 46 46 45 44 42 40 40 40 40 39 39 38 37 36 34 34 36 35 35 34 34 34 33 33 34 35 35 35
35 35 35 35 34 34 34 34 34 34 34 35 35 35 34 34 35 35 35 35 35 36 36 37 37 37 38 39 39 39 40 40 40 40 40 39 39 39 38 38 38 38 38 39 40 42 44 43 42 42 43 43 44 45 46 46 46 46 46 46 47 47 46 44 42 41 41 41 42 42 41 41 39 38 37 37 38 38 37 36 35 35 33 32 33 33 33 33
36 35 35 35 35 35 35 35 35 35 35 35 35 35 34 34 34 34 34 34 35 35 35 36 35 35 36 37 37 38 38 39 39 39 39 38 38 37 36 36 36 35 36 37 39 41 41 40 40 40 41 42 43 44 45 46 46 46 46 47 48 47 46 44 43 42 42 43 43 43 43 43 42 41 40 40 41 41 41 39 38 37 35 33 33 34 33 33
37 37 37 37 36 37 37 37 36 36 36 36 36 36 35 35 35 35 35 35 36 36 36 36 36 35 36 36 37 37 38 38 39 38 38 38 38 37 36 36 36 35 36 37 38 40 39 38 38 38 38 40 41 42 43 43 44 45 45 46 47 47 46 45 44 43 43 43 43 43 43 44 44 44 43 43 43 44 44 42 40 39 37 35 35 36 35 35
40 39 39 39 38 38 38 38 38 38 38 38 38 37 37 37 37 37 37 37 38 38 38 38 38 37 37 37 38 38 38 38 38 38 38 38 38 38 37 36 36 36 36 37 38 39 38 36 37 37 37 38 39 40 40 40 41 42 43 44 45 45 45 45 45 44 44 44 43 44 44 44 45 46 45 46 46 46 46 44 42 41 40 39 39 38 38 37
43 42 42 41 41 40 40 40 40 40 40 40 40 40 40 40 40 39 39 40 40 40 40 41 40 39 39 39 39 39 39 39 39 39 39 38 38 38 38 38 38 37 38 39 39 39 38 36 36 37 37 38 39 38 38 38 40 40 41 41 42 42 42 43 43 44 44 44 44 44 44 44 45 48 48 48 48 48 47 46 44 43 44 43 42 41 41 41
44 44 43 43 43 42 42 42 41 41 42 42 42 42 42 42 42 42 42 42 43 42 43 43 42 41 41 41 41 41 41 41 41 42 41 41 41 40 40 39 39 39 40 41 40 40 40 38 37 38 39 40 39 39 39 39 39 40 40 40 40 40 40 40 41 42 42 43 44 45 46 45 45 49 51 49 49 49 47 46 46 46 46 44 44 44 44 46
45 45 45 45 44 44 44 43 43 43 44 44 44 44 45 45 45 45 45 45 45 44 44 44 44 44 44 44 43 43 43 43 43 44 43 43 43 43 42 41 41 41 41 42 42 42 42 41 40 40 41 42 41 41 41 41 41 41 41 41 41 41 41 40 39 40 40 40 42 44 45 44 44 47 51 50 50 49 48 47 48 48 47 46 45 46 47 48
46 46 47 46 46 46 45 45 45 45 46 46 46 47 47 47 47 47 47 47 47 47 46 45 45 46 46 46 46 46 46 45 45 45 45 45 45 45 44 43 42 42 42 43 44 44 45 45 44 44 45 45 44 44 44 44 44 44 44 44 44 43 43 42 41 40 39 39 42 43 42 41 41 44 49 50 50 50 49 49 50 50 49 48 47 47 48 49
48 48 49 49 48 48 47 47 47 47 48 48 48 48 49 49 48 48 49 48 48 49 48 47 47 48 48 49 49 48 48 48 47 47 47 47 47 47 46 45 45 45 45 45 45 46 46 47 47 47 48 48 48 48 47 47 47 47 47 47 47 46 45 44 44 43 42 42 44 44 42 40 40 43 46 48 50 51 51 50 51 51 50 49 49 49 49 49
50 50 51 51 51 51 50 50 49 49 50 50 50 50 50 50 50 50 50 50 50 50 50 49 49 50 50 50 51 50 50 50 50 50 49 49 49 48 48 47 47 47 47 46 47 47 48 48 49 49 49 50 50 50 50 50 50 50 50 50 50 49 48 48 48 47 46 46 46 46 45 43 43 44 45 47 49 51 51 50 50 50 50 50 51 51 51 50
53 53 53 53 53 53 53 52 52 52 52 52 52 52 52 52 51 51 51 51 51 52 51 50 51 51 52 52 52 52 52 52 52 51 51 51 50 49 49 48 48 48 48 48 48 49 49 50 49 50 50 50 51 52 51 51 51 51 52 52 51 51 51 51 51 50 50 50 49 49 48 47 47 48 48 49 51 52 52 52 51 50 50 51 51 51 51 51
55 55 55 56 56 55 55 54 54 54 53 53 53 53 53 53 53 53 53 53 53 52 52 52 52 52 53 53 53 53 52 52 52 52 51 51 50 49 49 48 49 49 49 49 49 50 51 51 51 51 51 52 52 52 52 52 52 53 53 53 53 53 53 52 52 52 52 52 51 51 51 50 51 51 51 52 53 55 55 55 54 53 52 52 52 52 52 52
54 55 56 56 57 57 56 56 56 55 55 54 54 54 54 54 54 54 54 54 54 54 53 53 52 52 52 52 52 51 51 51 51 51 51 50 50 49 49 49 49 49 49 49 50 50 52 52 52 52 52 53 54 53 53 53 54 54 54 54 54 54 54 53 54 54 54 53 53 53 53 53 53 54 54 55 56 57 57 57 56 56 55 55 55 55 55 55
54 54 55 55 56 56 56 56 56 56 56 56 55 55 55 55 55 55 55 55 54 54 53 51 50 49 49 49 49 49 49 49 49 49 49 49 49 49 49 49 49 49 49 49 50 50 51 53 53 52 53 54 55 55 55 55 56 55 55 55 56 55 55 55 55 56 56 55 54 54 55 55 55 55 56 57 58 59 58 58 58 58 58 58 58 58 59 59
54 55 55 55 55 55 55 55 55 55 55 55 54 54 54 54 54 54 54 53 53 52 51 49 48 47 47 48 48 48 47 48 48 48 48 48 48 48 48 49 49 49 49 49 50 50 51 52 53 53 54 54 55 56 56 56 57 57 57 57 57 56 56 57 57 57 57 57 56 56 57 57 56 57 59 59 60 60 59 59 59 59 59 60 60 61 61 62
53 54 55 56 55 55 55 55 55 55 55 54 54 53 53 52 53 53 52 52 51 50 49 48 47 47 47 47 48 48 47 47 47 48 48 48 48 48 48 49 49 49 49 50 50 50 50 52 53 54 54 55 55 55 56 56 57 57 58 58 58 57 57 57 58 57 57 57 57 57 57 57 57 59 60 60 60 60 60 60 60 60 60 61 61 62 62 63
49 51 53 54 54 54 55 55 55 55 55 54 54 53 53 52 52 52 52 51 51 50 49 49 48 48 48 48 48 48 48 48 48 48 48 48 47 48 48 49 49 49 50 50 50 51 51 52 53 54 55 56 56 56 56 57 56 57 57 57 56 57 56 56 56 56 56 56 55 56 56 56 57 58 58 58 58 57 58 58 58 59 59 60 60 61 62 62
45 47 49 51 51 52 53 54 55 55 55 55 55 54 54 53 53 53 53 52 52 51 50 50 50 49 49 49 49 50 50 49 49 49 49 48 48 48 48 49 50 50 50 51 52 52 52 52 53 54 55 56 56 56 56 57 56 56 55 55 54 54 54 54 54 54 54 53 53 52 52 53 54 55 55 55 54 54 54 54 55 56 56 57 58 59 60 61
39 42 45 47 48 49 50 51 52 53 54 54 55 55 54 54 54 54 54 53 53 53 52 52 52 51 51 50 50 51 51 51 51 50 49 49 49 49 49 50 51 52 52 52 53 53 53 53 53 53 54 54 54 54 55 55 55 55 55 54 54 52 52 51 50 50 51 51 50 49 49 49 51 53 53 53 52 52 52 52 53 54 54 55 56 56 57 58
34 36 39 41 43 44 46 47 49 50 51 52 53 53 54 54 54 55 55 55 55 54 54 54 53 53 53 52 52 52 52 52 52 52 51 50 50 51 51 52 52 53 53 53 53 53 53 52 52 52 52 53 53 53 53 54 54 54 54 54 54 53 52 51 49 49 49 49 48 48 47 46 48 51 52 51 51 51 52 52 52 53 53 53 54 54 55 55
32 33 35 36 38 39 41 43 45 47 48 49 50 50 51 51 52 53 54 54 55 55 55 55 55 54 54 54 53 53 53 53 53 53 53 52 52 52 53 53 53 53 53 53 53 52 52 52 51 51 51 52 53 53 53 53 53 53 53 54 54 54 53 53 51 50 49 48 48 49 47 46 49 51 51 51 52 52 53 53 53 53 53 53 54 54 55 55
32 32 33 34 34 35 36 38 41 44 46 47 48 48 48 48 49 50 51 52 53 53 54 54 54 54 55 55 54 54 54 54 54 54 54 54 54 54 54 53 53 53 53 52 52 52 52 52 51 51 51 51 52 52 53 53 53 52 53 53 54 54 55 54 53 53 51 49 50 51 49 48 51 52 52 53 53 54 55 55 55 55 54 55 56 56 57 57
31 32 32 34 34 33 33 35 37 39 41 43 44 45 45 46 47 48 49 49 50 50 51 52 53 53 54 54 54 54 54 55 55 54 54 55 55 54 54 53 53 53 53 52 52 52 53 52 52 52 51 51 51 52 52 52 52 52 53 54 54 55 55 56 55 55 54 52 52 52 51 52 53 53 54 55 55 56 56 57 58 57 57 58 59 59 60 59
31 31 32 33 33 33 34 35 36 37 38 39 40 40 42 44 45 46 46 46 47 47 48 49 50 51 52 53 53 53 53 54 55 54 54 55 55 54 53 53 53 53 53 53 53 53 53 53 53 52 52 51 51 51 51 52 52 53 53 54 55 56 56 57 56 55 56 56 53 53 55 54 54 56 57 57 57 57 58 58 59 59 59 60 61 62 62 62
33 33 33 33 33 33 33 35 36 37 38 39 39 39 40 41 42 42 43 44 44 45 46 47 48 49 50 51 52 52 53 53 54 54 54 54 54 53 53 53 53 53 54 54 54 54 54 53 53 53 52 51 51 51 51 52 53 53 54 55 56 56 56 57 57 57 59 58 54 56 59 56 56 59 59 58 59 59 59 59 59 60 61 62 62 63 64 64
36 36 35 35 35 34 34 35 35 36 37 38 39 40 41 42 42 41 41 42 42 43 44 45 46 47 48 49 51 51 52 52 52 53 53 53 53 52 52 53 54 54 55 55 55 55 55 54 53 53 52 51 51 51 51 52 53 53 54 55 57 57 57 57 58 59 61 60 58 60 62 58 58 62 62 61 61 61 61 62 62 62 63 63 64 64 65 65
39 39 38 38 37 37 37 37 37 37 37 38 38 39 41 42 42 42 41 41 42 43 44 44 45 46 47 47 49 50 50 51 52 52 53 53 53 53 53 54 54 54 55 55 56 56 55 54 53 53 53 52 53 53 53 54 53 53 54 56 58 59 59 60 61 62 63 61 61 63 63 59 60 66 67 66 65 63 64 65 65 65 65 65 66 66 67 67
43 42 42 41 40 40 39 39 39 39 39 40 40 40 41 41 41 42 41 42 42 43 44 45 46 46 47 48 48 49 50 50 52 52 53 53 54 54 54 54 54 54 55 55 56 56 56 55 55 55 55 54 55 56 56 56 55 54 55 58 60 62 63 64 64 65 65 64 64 66 63 59 63 69 70 69 67 66 66 66 66 66 67 67 68 68 68 68
45 45 44 44 44 43 43 42 42 41 42 42 42 42 43 43 43 43 42 42 42 42 43 45 45 46 47 48 49 50 50 51 52 52 52 53 53 53 53 53 53 54 55 56 57 57 58 58 58 58 57 55 57 60 60 59 58 56 57 61 63 65 65 65 66 67 68 67 67 67 63 61 65 70 70 68 68 68 68 68 67 67 68 68 68 69 69 69
47 47 47 46 46 46 46 46 45 45 44 45 44 44 45 45 46 46 45 44 44 44 44 44 45 45 46 48 49 50 50 51 51 51 51 51 52 52 52 53 54 55 57 58 59 59 60 61 61 61 60 59 61 63 64 64 61 58 61 65 67 66 66 67 67 68 70 70 69 67 66 66 68 70 70 69 69 69 69 70 70 70 70 70 70 70 70 70
Wind_Direction
254 255 255 256 257 257 258 258 259 259 260 261 261 262 262 263 263 263 263 262 262 262 262 263 263 263 264 264 264 264 264 264 264 264 263 263 263 262 262 261 261 261 260 260 260 259 259 259 260 260 260 260 260 260 261 261 261 262 262 262 262 262 262 263 263 264 265 266 266 266 267 267 267 267 267 267 267 268 269 269 270 270 270 270 270 271 271 272
255 255 256 256 257 258 258 259 259 260 260 261 261 262 262 262 262 262 262 262 262 262 262 263 263 263 264 264 265 265 265 265 265 265 265 264 264 264 263 262 262 261 261 260 260 260 259 259 259 259 260 260 260 260 260 261 261 261 261 261 261 261 262 263 263 264 264 265 265 265 266 266 266 266 266 266 266 266 267 268 268 269 269 269 270 271 271 272
255 255 256 257 258 258 259 259 260 260 260 261 261 261 261 261 262 262 262 262 262 262 262 263 263 264 264 265 265 265 266 266 266 266 266 265 265 264 263 263 262 262 261 261 260 260 260 259 259 259 259 260 260 260 260 260 260 260 260 260 260 261 262 262 263 263 263 263 264 264 264 265 265 265 266 265 265 265 265 266 267 267 268 269 270 270 270 270
256 256 257 258 258 259 260 260 260 260 260 261 261 261 261 261 261 261 261 262 262 262 263 263 264 264 265 265 266 266 266 266 267 267 266 266 266 265 264 264 263 262 262 261 261 260 260 259 259 259 259 260 260 260 260 260 260 259 259 259 260 260 261 261 262 262 262 263 263 263 263 264 264 265 264 264 264 264 264 265 266 267 268 268 269 269 269 270
257 257 258 259 259 260 260 261 261 261 261 261 261 261 261 261 261 261 262 262 262 263 263 264 264 265 265 265 266 266 267 267 267 267 267 267 266 266 265 264 263 263 262 261 261 260 260 260 260 259 259 259 259 258 258 258 258 258 258 258 259 260 260 261 261 261 261 262 262 262 263 263 263 263 263 263 264 264 264 265 266 266 266 267 267 268 269 270
257 258 258 259 260 260 260 261 261 261 261 261 261 260 261 261 261 262 262 262 263 263 263 264 264 265 265 265 266 266 267 267 267 267 267 267 267 266 265 264 264 263 262 261 261 260 260 260 259 259 258 258 258 257 257 257 257 257 258 259 259 260 260 260 261 261 261 261 261 262 262 262 262 263 263 263 263 264 264 265 265 265 266 266 267 268 269 270
257 257 258 258 259 260 260 260 260 260 260 260 260 260 260 260 261 261 262 262 262 263 263 264 264 265 265 266 266 267 267 267 267 267 267 267 267 266 266 265 264 263 262 262 261 261 260 259 258 258 257 257 257 257 257 257 257 257 258 259 259 259 260 260 260 260 260 260 261 261 261 261 261 262 262 262 262 263 263 264 264 265 265 265 266 267 268 269
256 257 257 258 259 259 259 260 260 260 259 259 260 260 260 260 261 261 262 262 263 263 264 264 265 265 265 266 267 267 267 267 267 267 267 267 267 266 265 265 264 264 263 262 261 261 260 259 258 257 257 257 257 257 257 256 256 257 257 258 258 258 258 258 259 259 259 259 259 259 260 260 260 260 260 261 261 262 262 263 263 264 264 265 266 267 267 268
255 256 257 257 258 258 259 259 259 259 259 260 260 261 261 261 262 262 262 263 263 264 264 265 265 265 266 266 267 267 267 267 267 267 267 266 266 265 265 264 264 263 262 262 261 260 259 259 258 258 257 257 256 256 256 256 256 256 257 257 257 257 257 257 258 258 258 258 259 259 259 259 259 260 260 260 261 261 261 262 262 263 264 265 265 266 266 267
255 256 256 257 258 258 259 259 260 260 261 261 262 262 262 262 262 263 263 263 264 264 264 265 265 265 266 266 266 266 266 266 266 266 266 265 265 264 264 263 263 262 262 261 261 260 259 258 258 257 256 256 256 256 256 256 256 257 257 257 256 257 257 257 257 258 258 258 259 259 259 259 259 259 260 260 261 261 261 262 262 263 264 264 265 265 265 265
256 256 257 258 259 259 260 261 261 262 262 263 263 263 263 263 263 263 263 263 263 263 263 263 264 264 264 264 264 264 264 264 264 264 264 264 264 264 263 263 263 263 262 261 260 259 258 258 257 256 256 256 256 256 257 257 257 257 257 257 257 257 257 258 258 258 259 259 260 260 260 260 260 260 260 261 261 262 262 262 263 263 263 263 263 264 264 265
256 257 258 259 260 261 261 262 262 263 263 263 263 263 263 262 262 262 261 261 261 261 261 261 262 262 263 263 262 262 262 262 262 262 263 263 264 264 264 264 264 263 263 262 261 259 259 258 257 257 257 256 257 257 257 257 257 257 257 258 258 258 259 259 260 260 260 260 261 261 261 261 261 261 261 261 261 261 261 262 262 262 262 262 263 264 264 265
257 258 259 260 261 261 262 262 262 263 263 263 262 262 261 260 260 259 259 258 259 259 259 260 261 261 262 261 260 259 259 259 260 261 262 263 264 265 265 265 265 264 263 262 261 260 259 259 258 258 258 258 257 257 257 257 258 258 259 259 260 260 261 261 261 261 260 260 260 261 261 261 261 261 261 261 261 261 261 261 262 262 262 263 263 264 264 264
258 259 259 260 261 261 262 262 262 262 261 261 260 259 259 258 257 256 256 256 256 257 258 259 259 260 260 259 258 257 257 258 259 260 261 262 263 264 265 265 265 264 264 263 262 262 261 261 260 260 259 259 257 257 258 258 259 260 261 262 262 263 262 262 262 261 260 260 259 260 260 260 261 261 261 261 261 261 261 261 262 262 262 262 262 263 263 263
258 258 259 260 260 261 261 261 261 260 259 258 257 256 256 255 254 254 255 255 255 257 258 258 257 258 257 257 256 256 257 258 259 260 261 261 262 262 262 262 262 262 262 262 263 263 263 262 262 262 260 259 258 258 258 259 260 261 263 264 264 263 263 262 261 260 260 259 259 260 260 261 261 262 262 262 262 261 261 261 261 261 261 262 262 262 263 263
257 258 259 259 259 259 259 259 258 257 256 255 254 254 254 254 254 254 254 254 254 256 257 256 256 256 256 256 257 258 259 260 260 261 261 261 261 260 260 260 259 260 260 260 261 261 262 262 261 260 259 258 259 259 259 260 261 262 263 263 263 262 261 260 259 259 259 259 260 260 261 262 262 263 264 263 262 262 262 262 262 261 261 262 262 263 263 264
256 257 257 257 257 257 256 255 255 254 253 253 253 253 253 254 254 254 254 253 254 256 256 255 255 255 256 257 259 259 260 260 261 261 261 261 261 261 260 260 259 259 259 259 260 260 260 260 259 259 258 259 260 261 261 261 261 261 260 260 260 259 258 258 258 258 259 259 259 260 261 262 263 263 264 264 263 263 263 263 263 263 263 263 264 264 265 265
254 254 254 254 254 254 254 253 253 253 252 252 253 253 253 253 253 253 253 253 254 255 256 256 256 256 257 258 260 260 260 261 262 262 263 263 263 262 261 261 260 259 259 260 260 260 259 258 258 258 258 260 261 261 260 260 259 258 258 258 258 258 257 257 257 258 259 259 259 260 261 263 263 263 263 264 265 264 263 264 264 264 265 266 267 267 267 268
251 251 252 252 252 252 253 253 253 253 253 252 252 252 253 253 253 253 254 254 255 256 256 257 257 257 258 258 260 261 262 262 263 263 263 263 263 262 262 261 260 260 260 259 259 259 258 257 257 258 259 260 260 259 258 257 257 256 256 256 257 257 257 257 257 258 259 260 261 261 261 263 263 263 262 264 266 266 265 265 266 266 267 267 268 268 269 269
249 250 251 251 252 252 253 253 253 253 253 253 252 253 253 254 255 255 255 256 257 257 258 258 258 259 259 259 260 262 263 264 263 263 263 263 263 263 262 262 261 261 260 259 258 258 258 258 257 259 260 260 259 258 258 257 256 256 255 255 256 256 256 257 258 259 260 261 261 261 260 261 262 262 261 263 266 267 268 268 268 268 267 267 268 268 269 270
248 249 250 251 252 252 253 254 254 254 253 253 253 254 254 255 256 257 257 257 258 258 259 259 260 260 261 261 261 262 263 264 264 264 264 264 264 263 263 262 261 261 260 259 259 259 259 259 259 259 259 258 258 258 258 258 257 257 256 256 256 256 257 257 258 260 261 261 261 260 260 259 259 260 260 261 263 265 267 268 269 269 269 270 270 270 270 271
248 249 250 251 252 253 253 254 254 254 254 254 254 254 255 256 257 257 257 258 258 259 259 260 260 260 261 261 262 262 262 263 264 265 265 264 264 263 262 262 261 261 260 260 260 260 259 260 260 259 257 257 257 258 258 259 259 259 258 258 258 258 258 258 259 259 260 260 260 260 259 258 257 258 258 258 260 262 264 266 267 268 270 271 273 273 273 274
247 249 250 251 252 253 253 254 254 254 254 254 254 255 255 256 256 257 258 258 259 259 259 260 260 260 260 261 261 261 261 262 263 264 264 264 264 263 262 262 262 262 261 260 259 258 258 259 259 258 257 257 257 258 258 258 258 259 259 260 260 260 260 260 259 259 259 259 259 259 259 259 258 257 257 258 259 260 260 261 263 265 267 270 273 275 276 277
247 248 250 251 252 253 254 254 254 254 254 254 255 255 256 256 257 258 258 259 260 260 260 260 260 260 260 260 260 260 261 261 262 262 263 264 263 262 262 261 261 261 260 259 258 258 258 259 259 258 259 259 258 258 258 259 259 259 260 260 261 262 262 261 260 259 258 258 259 260 260 261 260 258 257 257 258 259 259 259 260 263 265 268 271 273 274 275
248 249 250 252 252 253 253 254 254 254 253 254 255 256 256 257 257 259 260 261 261 262 262 262 261 261 260 261 260 260 260 261 262 262 263 263 263 262 261 261 261 260 260 259 259 259 260 260 260 259 259 259 259 258 258 259 260 260 260 260 261 262 262 262 260 259 258 258 259 260 261 262 261 260 258 257 257 257 258 259 259 261 263 264 266 267 268 270
250 250 251 252 252 253 254 254 254 254 254 254 255 256 257 258 259 260 261 263 263 264 264 264 264 263 262 262 262 261 261 261 262 262 262 263 263 263 262 261 261 260 260 260 260 261 261 261 261 261 260 260 259 259 259 260 260 260 260 260 261 261 261 261 261 260 259 258 258 259 260 261 262 261 259 258 257 257 258 259 260 261 261 260 260 261 264 266
252 252 253 253 253 253 254 254 255 254 255 255 255 257 258 259 260 261 263 264 265 266 266 266 266 266 265 264 264 263 262 261 261 261 261 262 262 262 262 261 260 259 259 260 260 261 262 261 261 262 262 261 261 261 261 261 261 262 262 262 262 262 262 261 261 261 260 260 259 258 258 259 261 262 260 258 259 259 259 260 260 260 259 259 259 260 261 261
254 255 255 255 255 254 254 254 254 255 255 256 256 257 259 260 261 262 264 265 266 267 267 268 268 267 267 266 265 264 263 262 261 260 260 260 260 260 260 260 260 260 259 259 260 261 261 260 259 260 261 261 261 262 262 262 262 263 263 264 264 263 263 262 261 260 260 260 260 258 258 257 258 262 263 261 261 261 261 261 260 259 259 259 259 259 259 259
255 256 256 255 255 255 255 255 255 255 255 256 257 258 259 260 262 263 264 265 266 266 267 267 268 268 268 267 267 266 265 264 263 262 261 261 260 260 260 260 259 260 260 260 261 261 261 260 259 259 260 260 261 261 261 261 262 262 263 263 263 264 263 263 262 262 262 261 261 260 259 259 259 261 264 265 263 262 261 259 258 257 257 258 257 258 258 259
255 256 256 256 256 256 256 256 256 256 256 257 258 259 260 261 262 263 264 264 265 266 266 267 267 268 268 268 268 267 267 266 266 265 264 263 262 261 260 260 259 259 259 259 260 260 261 261 260 259 259 260 260 260 261 261 261 261 262 262 263 263 264 264 264 263 263 262 262 261 261 261 260 260 263 264 264 263 261 259 258 258 257 257 257 257 257 258
255 256 256 257 257 257 257 257 257 257 258 258 259 260 261 261 262 263 263 264 265 266 266 266 267 267 268 268 268 268 268 268 267 266 265 264 263 262 261 260 260 259 259 259 259 259 259 260 260 259 259 260 260 260 261 261 262 262 262 263 264 264 264 264 264 263 263 263 263 264 264 263 262 261 262 264 265 264 263 262 261 261 260 259 258 257 257 258
255 256 257 257 257 257 257 257 257 258 258 259 260 260 261 262 262 263 264 264 265 266 266 267 267 267 268 268 268 268 268 268 267 267 266 265 264 263 262 261 260 260 260 260 260 260 259 259 260 260 260 260 260 260 260 261 261 262 263 263 264 264 264 264 264 263 263 263 264 265 265 265 263 262 262 264 265 266 266 265 264 264 263 262 260 259 258 257
256 256 257 258 258 258 258 258 258 258 259 259 260 261 262 262 263 263 264 264 265 265 266 267 267 267 268 268 268 268 268 267 267 266 266 265 264 264 263 262 262 261 261 261 261 261 261 261 261 261 262 262 262 262 261 262 262 263 263 263 264 264 264 264 264 264 264 264 264 264 264 263 262 261 261 261 263 265 265 265 265 265 264 264 264 262 261 260
256 257 257 258 259 259 260 260 260 260 260 260 261 261 262 263 263 264 264 264 264 265 266 266 267 268 268 268 268 267 267 266 265 265 264 264 264 263 263 262 262 261 261 261 261 262 263 263 262 263 263 263 264 264 264 264 264 264 264 264 265 264 264 264 265 265 264 264 264 264 263 262 261 260 260 259 260 262 263 263 264 264 264 265 265 265 264 262
257 257 258 258 259 259 260 261 261 261 261 261 261 261 262 263 263 264 264 265 265 266 266 267 268 268 267 267 266 266 265 265 264 264 263 263 263 262 261 261 261 261 261 261 262 263 264 264 264 264 265 265 265 265 265 266 265 265 266 266 266 266 266 266 266 265 265 265 264 264 264 263 262 262 261 260 260 260 261 262 263 264 264 264 264 265 265 264
258 258 258 258 259 259 260 261 261 261 261 261 261 262 262 263 263 264 264 265 266 266 267 267 266 266 266 265 265 264 264 264 264 263 263 262 262 262 261 261 261 261 261 261 262 263 264 265 265 265 265 266 267 267 267 267 267 267 267 266 266 266 267 267 266 266 267 266 266 265 264 263 263 263 262 262 261 261 262 262 263 263 263 263 263 264 264 265
258 259 259 259 259 260 260 261 261 261 261 261 261 261 262 262 263 263 264 264 265 265 265 265 264 264 264 264 264 263 263 263 263 263 263 262 262 262 262 262 262 262 262 263 263 263 264 265 266 266 266 266 268 269 269 269 269 269 269 268 268 268 267 267 267 267 267 267 266 265 265 265 264 263 263 262 262 262 263 263 263 263 263 263 263 263 263 264
258 259 259 259 260 260 260 261 261 261 261 262 261 261 261 261 262 262 263 263 264 264 264 263 263 262 262 262 263 263 262 262 262 262 262 262 263 263 262 262 262 262 263 263 263 263 264 265 267 267 267 267 267 267 268 269 269 270 270 270 270 269 269 269 269 268 268 268 267 267 266 266 265 264 263 263 263 263 263 263 263 262 262 262 263 263 263 263
258 259 259 260 260 260 260 261 261 261 261 261 261 261 261 261 261 262 262 262 262 262 262 262 262 262 261 261 261 262 262 262 262 262 262 263 263 263 263 263 263 263 263 264 264 264 264 265 267 268 269 268 268 267 268 268 268 268 269 269 269 269 269 268 268 268 268 268 268 268 268 267 266 266 265 265 265 265 264 264 264 263 263 262 262 263 263 263
259 259 260 260 260 260 260 261 261 261 261 261 261 261 261 261 261 261 261 262 262 262 262 262 261 261 261 261 261 261 262 261 261 262 262 263 263 263 263 264 264 264 265 265 266 266 266 266 267 268 269 269 269 269 269 269 268 267 267 267 267 268 268 268 268 268 268 267 267 267 268 268 268 267 266 265 264 264 264 264 263 263 262 261 261 261 262 262
263 262 261 261 261 261 261 261 261 261 261 261 261 261 261 261 261 261 261 261 262 262 262 261 261 261 261 261 261 261 262 262 262 262 262 263 263 263 263 264 265 266 266 266 267 267 267 267 267 267 268 269 269 270 270 270 270 270 269 268 268 267 267 267 268 268 269 268 268 268 268 268 269 269 268 267 266 265 264 263 263 262 262 261 260 260 260 260
268 266 265 263 263 262 262 262 263 263 263 262 262 261 261 261 261 261 261 262 261 261 261 261 261 261 261 261 261 261 262 263 263 263 262 262 263 263 264 265 266 267 268 268 267 267 267 267 267 267 267 268 269 270 271 271 272 272 272 272 272 271 270 268 267 267 267 268 268 267 266 267 267 268 268 268 268 267 266 265 265 265 264 264 264 263 262 261
269 269 268 266 265 264 264 263 264 264 264 264 264 263 263 263 262 262 262 261 261 261 261 261 261 262 262 262 262 262 262 262 263 264 263 263 263 264 264 265 266 267 267 267 267 267 266 266 266 266 266 267 268 268 269 269 270 271 272 273 274 274 273 272 271 269 268 268 268 267 265 264 263 264 264 265 266 266 266 265 265 265 266 266 266 266 265 264
271 269 268 268 267 266 265 264 264 264 264 264 265 265 265 264 264 263 262 261 261 261 261 261 261 261 262 262 262 262 262 262 262 263 264 264 264 264 265 265 265 265 265 265 265 265 265 265 264 264 264 265 266 266 267 267 268 269 270 271 272 272 273 273 273 272 271 270 269 268 267 265 263 263 263 263 263 264 265 265 266 266 266 266 266 266 266 266
273 272 270 269 268 267 266 264 263 264 264 264 265 265 265 265 264 263 263 262 262 262 261 261 261 261 261 262 262 262 262 263 263 263 264 265 265 265 265 265 265 264 264 264 264 264 264 264 264 264 263 263 263 264 265 266 267 267 268 269 270 271 272 272 272 272 272 270 269 268 268 265 264 264 263 262 262 262 263 264 265 266 267 267 267 267 267 267
270 271 271 271 270 268 267 265 264 264 264 264 264 264 264 264 264 264 264 264 263 262 261 260 260 260 261 261 262 262 262 263 264 264 264 265 265 265 265 264 264 264 264 264 264 264 264 264 264 264 264 263 263 264 265 266 266 267 267 268 269 269 270 271 271 272 271 270 270 269 268 266 265 264 263 262 262 262 262 262 263 265 266 267 268 269 269 269
266 267 268 269 270 270 268 267 266 265 265 265 265 264 264 264 264 264 264 264 264 263 262 261 260 260 260 261 262 262 262 263 264 264 264 264 264 265 264 264 264 264 264 264 264 264 263 263 263 263 264 264 264 265 266 266 267 268 268 268 268 268 269 269 270 270 270 270 270 269 267 267 267 266 265 264 264 264 263 263 263 263 264 265 267 268 269 269
266 265 265 266 267 267 268 267 267 266 265 265 265 265 265 264 264 264 263 264 264 264 263 262 261 260 260 260 261 262 262 262 263 263 264 264 264 264 264 265 265 265 265 265 265 264 264 264 264 265 266 266 267 267 267 267 267 268 269 269 269 269 269 269 269 269 269 270 269 268 268 269 270 270 269 267 266 265 265 265 264 264 264 264 264 265 266 267
267 266 265 265 265 264 265 265 266 266 266 266 265 265 264 264 265 264 263 263 262 263 263 263 262 262 261 260 260 260 261 262 262 262 263 264 264 265 265 265 265 265 265 266 266 267 267 268 268 269 269 270 270 269 268 268 267 268 269 270 271 272 271 270 269 269 269 270 270 270 270 272 272 271 270 268 267 267 266 266 266 266 265 264 264 264 264 264
268 267 267 266 265 264 264 264 264 265 266 266 266 266 265 265 264 264 264 263 262 261 262 262 262 262 262 261 261 260 260 261 261 262 263 263 264 264 265 265 265 265 265 266 267 268 269 270 270 270 270 270 271 270 269 269 269 269 271 272 273 272 272 272 272 272 272 272 271 270 271 272 271 270 269 270 270 269 268 267 266 266 265 265 264 264 263 263
268 267 267 267 267 266 265 264 264 263 264 264 265 266 266 267 266 265 264 264 263 262 261 261 261 261 262 262 262 261 261 261 261 261 262 263 263 264 264 264 265 265 266 266 267 268 269 270 270 270 270 271 272 272 272 271 271 272 273 272 271 270 271 272 273 274 274 273 272 272 273 271 269 269 270 270 270 270 269 268 266 265 264 264 264 263 263 263
268 267 267 267 267 267 267 266 265 264 263 263 263 264 265 266 267 267 266 266 265 264 262 261 261 261 262 262 262 262 262 262 262 262 262 263 263 263 264 264 265 266 266 267 268 269 270 271 271 271 272 272 271 272 272 272 273 273 272 270 270 271 272 272 272 272 272 272 273 274 274 272 270 270 271 270 269 269 268 268 267 266 265 264 263 263 263 263